Time,TemperatureF,DewpointF,PressureIn,WindDirection,WindDirectionDegrees,WindSpeedMPH,WindSpeedGustMPH,Humidity,HourlyPrecipIn,Conditions,Clouds,dailyrainin,SoftwareType,DateUTC
2013-07-29 00:09:00,52.2,50.0,29.84,WSW,246,14.0,-999.0,91,-99.99,,,0.00,weatherlink.com 1.10,2013-07-29 07:09:00,
2013-07-29 00:24:00,52.2,50.0,29.84,WSW,241,9.0,-999.0,92,-99.99,,,0.00,weatherlink.com 1.10,2013-07-29 07:24:00,
2013-07-29 00:39:00,52.2,50.0,29.84,WSW,256,1.0,-999.0,92,-99.99,,,0.00,weatherlink.com 1.10,2013-07-29 07:39:00,
2013-07-29 00:54:00,52.1,50.0,29.84,SW,233,10.0,-999.0,92,-99.99,,,0.00,weatherlink.com 1.10,2013-07-29 07:54:00,
2013-07-29 01:09:00,52.1,50.0,29.84,SSE,150,4.0,-999.0,92,-99.99,,,0.00,weatherlink.com 1.10,2013-07-29 08:09:00,
2013-07-29 01:24:00,52.4,50.0,29.84,NW,311,12.0,-999.0,92,-99.99,,,0.00,weatherlink.com 1.10,2013-07-29 08:24:00,
2013-07-29 01:39:00,52.6,50.0,29.84,SW,234,0.0,-999.0,91,-99.99,,,0.00,weatherlink.com 1.10,2013-07-29 08:39:00,
2013-07-29 01:54:00,52.6,50.0,29.84,WSW,237,13.0,-999.0,91,-99.99,,,0.00,weatherlink.com 1.10,2013-07-29 08:54:00,
2013-07-29 02:09:00,52.6,50.0,29.84,South,191,6.0,-999.0,91,-99.99,,,0.00,weatherlink.com 1.10,2013-07-29 09:09:00,
2013-07-29 02:24:00,52.6,50.0,29.84,West,272,2.0,-999.0,91,-99.99,,,0.00,weatherlink.com 1.10,2013-07-29 09:24:00,
2013-07-29 02:39:00,52.6,50.0,29.84,WNW,288,8.0,-999.0,91,-99.99,,,0.00,weatherlink.com 1.10,2013-07-29 09:39:00,
2013-07-29 02:54:00,52.7,51.0,29.84,NW,319,1.0,-999.0,92,-99.99,,,0.00,weatherlink.com 1.10,2013-07-29 09:54:00,
2013-07-29 03:09:00,52.8,51.0,29.84,SSW,213,12.0,-999.0,92,-99.99,,,0.00,weatherlink.com 1.10,2013-07-29 10:09:00,
2013-07-29 03:24:00,52.8,51.0,29.84,SW,236,7.0,-999.0,92,-99.99,,,0.00,weatherlink.com 1.10,2013-07-29 10:24:00,
2013-07-29 03:39:00,52.7,51.0,29.85,WSW,241,6.0,-999.0,92,-99.99,,,0.00,weatherlink.com 1.10,2013-07-29 10:39:00,
2013-07-29 03:54:00,52.8,51.0,29.85,NE,40,1.0,-999.0,92,-99.99,,,0.00,weatherlink.com 1.10,2013-07-29 10:54:00,
2013-07-29 04:09:00,52.9,51.0,29.85,NE,36,2.0,-999.0,92,-99.99,,,0.00,weatherlink.com 1.10,2013-07-29 11:09:00,
2013-07-29 04:24:00,53.0,51.0,29.85,NW,309,11.0,-999.0,91,-99.99,,,0.00,weatherlink.com 1.10,2013-07-29 11:24:00,
2013-07-29 04:39:00,53.1,51.0,29.85,SSW,213,1.0,-999.0,91,-99.99,,,0.00,weatherlink.com 1.10,2013-07-29 11:39:00,
2013-07-29 04:54:00,53.1,51.0,29.85,WSW,256,4.0,-999.0,91,-99.99,,,0.00,weatherlink.com 1.10,2013-07-29 11:54:00,
2013-07-29 05:09:00,53.2,51.0,29.86,WSW,250,6.0,-999.0,91,-99.99,,,0.00,weatherlink.com 1.10,2013-07-29 12:09:00,
2013-07-29 06:24:00,53.1,51.0,29.88,SW,215,4.0,-999.0,92,-99.99,,,0.00,weatherlink.com 1.10,2013-07-29 13:24:00,
2013-07-29 06:39:00,53.3,51.0,29.88,SSW,202,10.0,-999.0,92,-99.99,,,0.00,weatherlink.com 1.10,2013-07-29 13:39:00,
2013-07-29 06:54:00,53.2,51.0,29.89,SSW,213,21.0,-999.0,92,-99.99,,,0.00,weatherlink.com 1.10,2013-07-29 13:54:00,
2013-07-29 07:24:00,53.3,51.0,29.90,SW,218,0.0,-999.0,91,-99.99,,,0.00,weatherlink.com 1.10,2013-07-29 14:24:00,
2013-07-29 07:39:00,53.4,51.0,29.91,WNW,284,16.0,-999.0,91,-99.99,,,0.00,weatherlink.com 1.10,2013-07-29 14:39:00,
2013-07-29 07:54:00,53.5,51.0,29.91,SE,137,3.0,-999.0,92,-99.99,,,0.00,weatherlink.com 1.10,2013-07-29 14:54:00,
2013-07-29 08:24:00,53.5,51.0,29.93,SW,228,12.0,-999.0,92,-99.99,,,0.00,weatherlink.com 1.10,2013-07-29 15:24:00,
2013-07-29 08:39:00,53.5,51.0,29.93,ENE,72,4.0,-999.0,92,-99.99,,,0.00,weatherlink.com 1.10,2013-07-29 15:39:00,
2013-07-29 08:54:00,53.7,52.0,29.93,SSW,198,0.0,-999.0,92,-99.99,,,0.00,weatherlink.com 1.10,2013-07-29 15:54:00,
2013-07-29 09:09:00,53.7,51.0,29.93,WSW,242,9.0,-999.0,91,-99.99,,,0.00,weatherlink.com 1.10,2013-07-29 16:09:00,
2013-07-29 09:24:00,53.9,51.0,29.94,SW,233,3.0,-999.0,91,-99.99,,,0.00,weatherlink.com 1.10,2013-07-29 16:24:00,
2013-07-29 09:39:00,53.9,51.0,29.94,SSW,213,15.0,-999.0,91,-99.99,,,0.00,weatherlink.com 1.10,2013-07-29 16:39:00,
2013-07-29 09:54:00,54.2,52.0,29.95,WNW,299,0.0,-999.0,91,-99.99,,,0.00,weatherlink.com 1.10,2013-07-29 16:54:00,
2013-07-29 10:09:00,54.2,51.0,29.95,SSW,196,0.0,-999.0,90,-99.99,,,0.00,weatherlink.com 1.10,2013-07-29 17:09:00,
2013-07-29 10:24:00,54.1,51.0,29.96,SSW,203,3.0,-999.0,90,-99.99,,,0.00,weatherlink.com 1.10,2013-07-29 17:24:00,
2013-07-29 10:39:00,54.1,52.0,29.97,NE,52,6.0,-999.0,91,-99.99,,,0.00,weatherlink.com 1.10,2013-07-29 17:39:00,
2013-07-29 10:54:00,54.1,52.0,29.97,West,275,9.0,-999.0,91,-99.99,,,0.00,weatherlink.com 1.10,2013-07-29 17:54:00,
2013-07-29 11:09:00,54.1,52.0,29.97,SSW,207,6.0,-999.0,91,-99.99,,,0.00,weatherlink.com 1.10,2013-07-29 18:09:00,
2013-07-29 11:24:00,54.3,52.0,29.97,NW,315,16.0,-999.0,91,-99.99,,,0.00,weatherlink.com 1.10,2013-07-29 18:24:00,
2013-07-29 11:39:00,54.6,52.0,29.97,NW,326,6.0,-999.0,91,-99.99,,,0.00,weatherlink.com 1.10,2013-07-29 18:39:00,
2013-07-29 12:08:00,55.2,52.0,29.98,WSW,243,13.0,-999.0,89,-99.99,,,0.00,weatherlink.com 1.10,2013-07-29 19:08:00,
2013-07-29 12:39:00,57.3,53.0,29.98,WSW,250,11.0,-999.0,84,-99.99,,,0.00,weatherlink.com 1.10,2013-07-29 19:39:00,
2013-07-29 12:54:00,57.3,53.0,29.98,SW,226,4.0,-999.0,84,-99.99,,,0.00,weatherlink.com 1.10,2013-07-29 19:54:00,
2013-07-29 13:09:00,57.0,53.0,29.98,West,271,6.0,-999.0,85,-99.99,,,0.00,weatherlink.com 1.10,2013-07-29 20:09:00,
2013-07-29 13:24:00,57.2,53.0,29.97,West,275,25.0,-999.0,85,-99.99,,,0.00,weatherlink.com 1.10,2013-07-29 20:24:00,
2013-07-29 13:39:00,59.0,53.0,29.97,WSW,239,13.0,-999.0,81,-99.99,,,0.00,weatherlink.com 1.10,2013-07-29 20:39:00,
2013-07-29 14:09:00,59.7,54.0,29.97,West,262,16.0,-999.0,80,-99.99,,,0.00,weatherlink.com 1.10,2013-07-29 21:09:00,
2013-07-29 14:24:00,59.9,54.0,29.97,WSW,254,9.0,-999.0,80,-99.99,,,0.00,weatherlink.com 1.10,2013-07-29 21:24:00,
2013-07-29 14:39:00,59.9,53.0,29.97,WSW,241,15.0,-999.0,79,-99.99,,,0.00,weatherlink.com 1.10,2013-07-29 21:39:00,
2013-07-29 15:09:00,60.1,54.0,29.98,West,275,14.0,-999.0,80,-99.99,,,0.00,weatherlink.com 1.10,2013-07-29 22:09:00,
2013-07-29 15:24:00,59.7,53.0,29.97,SW,221,12.0,-999.0,79,-99.99,,,0.00,weatherlink.com 1.10,2013-07-29 22:24:00,
2013-07-29 15:39:00,59.8,53.0,29.97,West,260,5.0,-999.0,78,-99.99,,,0.00,weatherlink.com 1.10,2013-07-29 22:39:00,
2013-07-29 15:54:00,60.2,53.0,29.96,West,260,18.0,-999.0,77,-99.99,,,0.00,weatherlink.com 1.10,2013-07-29 22:54:00,
2013-07-29 16:09:00,60.4,53.0,29.96,West,275,3.0,-999.0,77,-99.99,,,0.00,weatherlink.com 1.10,2013-07-29 23:09:00,
2013-07-29 16:24:00,61.3,53.0,29.96,SW,236,11.0,-999.0,75,-99.99,,,0.00,weatherlink.com 1.10,2013-07-29 23:24:00,
2013-07-29 16:39:00,60.9,53.0,29.96,West,265,6.0,-999.0,76,-99.99,,,0.00,weatherlink.com 1.10,2013-07-29 23:39:00,
2013-07-29 17:09:00,60.7,53.0,29.96,WSW,238,16.0,-999.0,76,-99.99,,,0.00,weatherlink.com 1.10,2013-07-30 00:09:00,
2013-07-29 17:24:00,61.4,53.0,29.95,South,180,0.0,-999.0,75,-99.99,,,0.00,weatherlink.com 1.10,2013-07-30 00:24:00,
2013-07-29 17:39:00,60.9,53.0,29.95,West,259,11.0,-999.0,76,-99.99,,,0.00,weatherlink.com 1.10,2013-07-30 00:39:00,
2013-07-29 17:53:00,60.5,53.0,29.96,WNW,302,0.0,-999.0,77,-99.99,,,0.00,weatherlink.com 1.10,2013-07-30 00:53:00,
2013-07-29 18:08:00,60.6,53.0,29.96,WSW,240,1.0,-999.0,77,-99.99,,,0.00,weatherlink.com 1.10,2013-07-30 01:08:00,
2013-07-29 18:23:00,60.2,53.0,29.95,SW,217,1.0,-999.0,77,-99.99,,,0.00,weatherlink.com 1.10,2013-07-30 01:23:00,
2013-07-29 18:38:00,59.6,52.0,29.95,WSW,254,0.0,-999.0,77,-99.99,,,0.00,weatherlink.com 1.10,2013-07-30 01:38:00,
2013-07-29 18:53:00,59.0,53.0,29.95,SW,227,2.0,-999.0,79,-99.99,,,0.00,weatherlink.com 1.10,2013-07-30 01:53:00,
2013-07-29 19:08:00,58.5,52.0,29.96,SSW,206,1.0,-999.0,79,-99.99,,,0.00,weatherlink.com 1.10,2013-07-30 02:08:00,
2013-07-29 19:23:00,57.7,52.0,29.96,SW,234,0.0,-999.0,80,-99.99,,,0.00,weatherlink.com 1.10,2013-07-30 02:23:00,
2013-07-29 19:38:00,56.6,51.0,29.96,West,269,9.0,-999.0,82,-99.99,,,0.00,weatherlink.com 1.10,2013-07-30 02:38:00,
2013-07-29 19:54:00,55.9,51.0,29.96,WSW,240,12.0,-999.0,84,-99.99,,,0.00,weatherlink.com 1.10,2013-07-30 02:54:00,
2013-07-29 20:09:00,55.4,51.0,29.96,WSW,248,6.0,-999.0,85,-99.99,,,0.00,weatherlink.com 1.10,2013-07-30 03:09:00,
2013-07-29 20:24:00,54.7,51.0,29.96,WNW,283,11.0,-999.0,87,-99.99,,,0.00,weatherlink.com 1.10,2013-07-30 03:24:00,
2013-07-29 20:39:00,54.2,51.0,29.97,SW,215,6.0,-999.0,88,-99.99,,,0.00,weatherlink.com 1.10,2013-07-30 03:39:00,
2013-07-29 20:54:00,53.9,51.0,29.97,West,264,1.0,-999.0,89,-99.99,,,0.00,weatherlink.com 1.10,2013-07-30 03:54:00,
2013-07-29 21:09:00,53.7,51.0,29.98,SW,229,6.0,-999.0,90,-99.99,,,0.00,weatherlink.com 1.10,2013-07-30 04:09:00,
2013-07-29 21:24:00,53.4,51.0,29.98,West,281,12.0,-999.0,90,-99.99,,,0.00,weatherlink.com 1.10,2013-07-30 04:24:00,
2013-07-29 21:39:00,53.4,51.0,29.99,SW,236,14.0,-999.0,91,-99.99,,,0.00,weatherlink.com 1.10,2013-07-30 04:39:00,
2013-07-29 21:54:00,53.3,51.0,30.00,WSW,241,6.0,-999.0,91,-99.99,,,0.00,weatherlink.com 1.10,2013-07-30 04:54:00,
2013-07-29 22:09:00,53.2,51.0,30.00,WSW,243,7.0,-999.0,91,-99.99,,,0.00,weatherlink.com 1.10,2013-07-30 05:09:00,
2013-07-29 22:24:00,53.2,51.0,30.00,SW,231,5.0,-999.0,91,-99.99,,,0.00,weatherlink.com 1.10,2013-07-30 05:24:00,
2013-07-29 22:39:00,53.0,51.0,30.00,SW,216,8.0,-999.0,91,-99.99,,,0.00,weatherlink.com 1.10,2013-07-30 05:39:00,
2013-07-29 22:54:00,52.9,50.0,30.00,SSW,200,0.0,-999.0,91,-99.99,,,0.00,weatherlink.com 1.10,2013-07-30 05:54:00,
2013-07-29 23:09:00,52.8,51.0,30.00,SW,233,17.0,-999.0,92,-99.99,,,0.00,weatherlink.com 1.10,2013-07-30 06:09:00,
2013-07-29 23:24:00,52.8,51.0,30.01,WSW,250,12.0,-999.0,92,-99.99,,,0.00,weatherlink.com 1.10,2013-07-30 06:24:00,
2013-07-29 23:39:00,52.7,51.0,30.02,West,275,18.0,-999.0,92,-99.99,,,0.00,weatherlink.com 1.10,2013-07-30 06:39:00,
2013-07-29 23:54:00,52.9,51.0,30.02,SW,225,7.0,-999.0,92,-99.99,,,0.00,weatherlink.com 1.10,2013-07-30 06:54:00,